CST,Max TemperatureF,Mean TemperatureF,Min TemperatureF,Max Dew PointF,MeanDew PointF,Min DewpointF,Max Humidity, Mean Humidity, Min Humidity, Max Sea Level PressureIn, Mean Sea Level PressureIn, Min Sea Level PressureIn, Max VisibilityMiles, Mean VisibilityMiles, Min VisibilityMiles, Max Wind SpeedMPH, Mean Wind SpeedMPH, Max Gust SpeedMPH,PrecipitationIn, CloudCover, Events, WindDirDegrees
2011-12-1,45,35,24,29,22,10,85,65,45,30.57,30.29,29.93,10,10,9,31,14,39,T,3,,5
2011-12-2,35,27,18,33,21,12,96,76,55,30.55,30.31,30.11,10,9,4,20,9,24,0.02,4,Rain,188
2011-12-3,44,38,31,43,34,3,100,77,54,30.21,29.99,29.83,10,4,2,23,11,26,0.69,8,Rain-Snow-Thunderstorm,24
2011-12-4,41,33,24,28,25,21,92,72,51,30.40,30.26,30.13,10,10,10,16,7,,0.00,2,,312
2011-12-5,25,22,18,22,15,10,88,78,68,30.56,30.47,30.36,10,10,9,22,17,30,T,7,Snow,352
2011-12-6,27,20,12,14,10,8,88,67,46,30.53,30.40,30.29,10,10,10,16,7,20,0.00,2,,332
2011-12-7,44,29,14,25,18,10,88,64,40,30.27,30.20,30.14,10,10,10,10,7,,0.00,0,,260
2011-12-8,39,29,19,28,24,18,92,76,59,30.31,30.23,30.15,10,9,5,12,4,15,0.00,3,,16
2011-12-9,39,32,25,27,23,19,88,71,54,30.53,30.42,30.28,10,9,5,14,6,18,0.00,7,,354
2011-12-10,41,31,21,30,26,19,96,80,64,30.53,30.46,30.37,10,7,5,20,10,24,0.00,3,,199
2011-12-11,45,38,30,36,32,28,92,79,65,30.39,30.25,30.13,10,6,4,28,15,37,0.00,6,,179
2011-12-12,46,43,39,36,34,30,79,72,65,30.26,30.19,30.13,10,10,10,20,11,24,0.00,8,,180
2011-12-13,44,42,39,43,40,37,100,90,79,30.27,30.16,29.99,9,4,2,16,8,20,0.27,8,Rain,161
2011-12-14,58,48,37,54,44,33,100,84,67,30.01,29.87,29.72,10,6,2,18,11,25,0.28,6,Rain,178
2011-12-15,44,35,25,31,24,18,89,63,36,30.44,30.28,30.02,10,10,9,23,9,28,0.00,0,,331
2011-12-16,45,32,19,27,23,18,92,67,41,30.50,30.43,30.37,10,10,9,15,6,18,0.00,0,Snow,198
2011-12-17,56,39,22,32,27,20,92,64,35,30.44,30.38,30.32,10,10,10,14,3,20,0.00,0,,216
2011-12-18,62,45,27,43,35,24,92,70,48,30.30,30.06,29.89,10,10,9,29,11,37,0.00,0,,184
2011-12-19,43,37,31,39,33,28,100,90,79,30.15,30.02,29.86,10,6,1,29,14,37,0.68,7,Rain-Snow,23
2011-12-20,32,27,22,29,27,20,100,89,78,30.05,29.97,29.88,10,6,1,26,12,36,0.15,7,Snow,351
2011-12-21,39,28,16,32,23,14,92,81,70,30.01,29.88,29.81,10,9,5,14,6,15,0.00,0,,214
2011-12-22,34,26,17,29,22,14,92,75,58,30.53,30.28,30.01,10,9,5,26,13,32,T,6,Snow,2
2011-12-23,33,22,10,22,15,7,92,74,56,30.54,30.45,30.37,10,10,10,16,6,20,0.00,0,,238
2011-12-24,38,27,15,25,19,12,88,72,56,30.48,30.41,30.38,10,10,10,13,5,15,0.00,0,,231
2011-12-25,41,29,17,29,22,16,91,75,59,30.54,30.45,30.38,10,10,10,12,4,14,0.00,0,,305
2011-12-26,43,32,20,34,27,19,96,83,70,30.34,30.13,30.00,10,10,10,13,5,21,0.00,3,,226
2011-12-27,43,35,27,27,24,21,85,69,53,30.22,30.14,30.05,10,10,10,17,9,21,0.00,0,,280
2011-12-28,51,40,28,31,27,24,85,65,44,30.08,30.00,29.89,10,10,10,13,6,14,0.00,0,,220
2011-12-29,55,42,29,41,34,26,85,72,59,29.87,29.75,29.61,10,10,10,28,8,33,T,1,,221
2011-12-30,56,44,31,37,29,23,82,55,27,29.96,29.91,29.78,10,10,10,22,13,31,0.00,0,,258
2011-12-31,62,47,32,36,31,24,82,57,32,30.15,29.75,29.54,10,10,10,43,19,51,T,2,,245